Regional Weather Roundup
Issued by NWS Wakefield, VA

Home | Current Version | Previous Version | Graphics & Text | Print | Product List | Glossary On
Versions: 1 2 3 4 5 6 7 8 9 10 11 12 13 14 15 16 17 18 19 20 21 22 23 24 25 26 27 28 29 30 31 32 33 34 35 36 37 38 39 40 41 42 43 44 45 46 47 48 49 50
000
ASUS41 KAKQ 202110
RWRAKQ

REGIONAL WEATHER ROUNDUP
NATIONAL WEATHER SERVICE WAKEFIELD VA
500 PM EDT SAT SEP 20 2014

Note: "fair" indicates few or no clouds below 12,000 feet with no
significant weather and/or obstructions to visibility. * = Denotes
station may not report precipitation (e.g., rain,snow,etc.),
thunder or fog.

VAZ042-051-052>054-056-202200-
NORTHERN VIRGINIA

CITY           SKY/WX    TMP DP  RH WIND       PRES   REMARKS
WASH NATIONAL  MOSUNNY   83  56  39 S6        30.09F
DULLES         MOSUNNY   78  56  46 SE10      30.10F
FORT BELVOIR   SUNNY     79  60  51 S2        30.09F
QUANTICO       SUNNY     80  55  42 S8        30.10F
FREDERICKSBRG* SUNNY     82  58  44 E6        30.08F
STAFFORD*      SUNNY     80  57  46 E10       30.13F
WARRENTON      SUNNY     82  62  50 SE9       30.08F
CULPEPER*      SUNNY     82  54  36 SE3       30.09F
MANASSAS*      SUNNY     79  55  44 SE10      30.09F
LEESBURG*      SUNNY     81  57  44 S9        30.09F
WINCHESTER     SUNNY     81  55  41 S12       30.07F
FRONT ROYAL*   PTCLDY    79  59  50 S9        30.06F
LURAY*         CLEAR     82  57  42 SE7       30.07F
$$

VAZ048-049-060>072-079>083-202200-
CENTRAL AND SOUTH CENTRAL VIRGINIA...AND NORTH CENTRAL NORTH CAROLINA

CITY           SKY/WX    TMP DP  RH WIND       PRES   REMARKS
RICHMOND       PTSUNNY   80  58  46 E10       30.08F
CHESTERFIELD*  PTCLDY   N/A N/A N/A E9        30.09F
PETERSBURG*    MOSUNNY   79  57  47 NE6       30.08F
HANOVER        SUNNY     80  57  45 E5        30.10F
TAPPAHANNOCK*  MOSUNNY   78  58  49 E9        30.11F
CHARLOTTSVILLE SUNNY     79  55  43 CALM      30.09F
ORANGE*        SUNNY     81  52  36 S3        30.10F
LOUISA*        SUNNY     81  55  41 E5        30.08F
FARMVILLE*     SUNNY     82  52  34 E5        30.06F
CREWE*         PTCLDY    78  56  46 CALM      30.07F
FORT PICKETT*  PTCLDY    78  59  51 E7        30.08F
LUNENBURG*     PTCLDY    78  60  53 CALM      30.08F
SOUTH HILL*    MOSUNNY   81  61  50 N6        30.12F
LAWRENCEVILLE* PTCLDY    78  60  54 NE5       30.07S
ROANOKE RAPIDS PTCLDY    77  63  61 NE8       30.05F
RALEIGH        PTSUNNY   79  57  46 NE8       30.05F
$$

VAZ088>098-202200-
SOUTHEAST VIRGINIA

CITY           SKY/WX    TMP DP  RH WIND       PRES   REMARKS
NORFOLK        CLOUDY    73  66  78 NE18      30.08F
VIRGINIA BEACH CLOUDY    73  68  84 NE12      30.06F
NORFOLK NAVAL  CLOUDY    74  67  78 NE16      30.09F
WEST POINT*    PTSUNNY   79  62  55 E12       30.11F
NEWPORT NEWS   PTSUNNY   78  66  66 E14       30.09F
LANGLEY AFB    PTSUNNY   75  68  78 E17       30.07F
FORT EUSTIS    PTSUNNY   77  60  56 E9        30.07F
WILLIAMSBURG*  MOSUNNY   82  68  61 E3        30.09F
HR EXEC AP*    CLOUDY    73  66  78 NE9       30.09F
FRANKLIN*      PTSUNNY   77  64  65 E14       30.06F
WAKEFIELD      CLOUDY    77  63  61 VRB5      30.07F
$$

VAZ020-022-025-037-045-202200-
WEST CENTRAL AND SOUTHWEST VIRGINIA

CITY           SKY/WX    TMP DP  RH WIND       PRES   REMARKS
STAUNTON*      SUNNY     79  52  38 SE8       30.11F
HOT SPRINGS VA SUNNY     64  43  45 S6        30.22F
LYNCHBURG      SUNNY     77  57  50 CALM      30.11F
DANVILLE       MOSUNNY   81  57  43 NE6       30.08F
SOUTH BOSTON*  NOT AVBL
MARTINSVILLE   SUNNY     80  57  45 E3        30.11F
ROANOKE        MOSUNNY   77  55  46 VRB3      30.12F
BLACKSBURG     SUNNY     75  61  60 CALM      30.15F
DUBLIN*        MOSUNNY   77  56  48 CALM      30.14F
MARION*        MOSUNNY   74  57  53 E5        30.16F
HILLSVILLE*    SUNNY     71  55  57 S5        30.16F
RICHLANDS*     PTCLDY    78  57  48 S3        30.14F
WISE*          CLOUDY    73  54  49 SE3       30.15F
ABINGDON*      SUNNY     80  53  38 NW3       30.11F
$$

MDZ021>025-VAZ099-100-202200-
SOUTHERN MARYLAND AND THE DELMARVA PENINSULA

CITY           SKY/WX    TMP DP  RH WIND       PRES   REMARKS
PATUXENT RIVER MOSUNNY   76  62  62 SE7       30.11S
BAY BRIDGE APT   N/A     77  57  50 W7        30.10F
LEONARDTOWN    MOSUNNY   77  59  53 SE7       30.12F
DOVER          SUNNY     75  67  76 SE10      30.11F
GEORGETOWN     MOSUNNY   76  63  64 E13G20    30.13F
EASTON         MOSUNNY   81  59  47 SE8       30.14F
CAMBRIDGE      MOSUNNY   79  55  44 E3        30.10F
SALISBURY      MOSUNNY   77  59  53 E12       30.11F
OCEAN CITY     PTSUNNY   72  64  76 E10       30.12F
WALLOPS ISLAND PTSUNNY   73  66  78 E13       30.11F
ACCOMACK*      MOSUNNY   73  61  64 E16       30.09F
$$

NCZ012>017-030>032-202200-
EASTERN NORTH CAROLINA

CITY           SKY/WX    TMP DP  RH WIND       PRES   REMARKS
ELIZABETH CITY CLOUDY    73  68  83 NE13      30.05F
AHOSKIE*       PTSUNNY   75  65  71 E6        30.06S
EDENTON*       CLOUDY    74  68  80 NE10      30.05F
CURRITUCK*     CLOUDY    73  68  84 N6        30.07F
KILL DEVIL HLS CLOUDY    73  71  91 NE9G18    30.02F
MANTEO         CLOUDY    73  70  89 NE10      30.04F
CAPE HATTERAS  HVY RAIN  70  70 100 SE17      30.02S FOG
TARBORO*       PTCLDY    81  66  60 NE10      30.04F
GOLDSBORO      MOSUNNY   77  69  74 NE7       30.00F
WASHINGTON     CLOUDY    74  67  77 NE12G17   30.03F
GREENVILLE     MOSUNNY   79  68  69 NE10      30.05S
NEW BERN       CLOUDY    77  68  73 NE12      30.02F
WILMINGTON     CLOUDY    76  68  76 NE16      29.97F
$$

VAZ048-202200-
ELSEWHERE

CITY           SKY/WX    TMP DP  RH WIND       PRES   REMARKS
HARRISBURG PA  PTSUNNY   78  58  49 S10G18    30.07F
BALTIMORE      MOSUNNY   78  54  43 SE9       30.10F
ANNAPOLIS      SUNNY     76  60  57 S6        30.10F
ANDREWS AFB    SUNNY     78  58  50 SE8       30.10F
WILMINGTON DE  MOSUNNY   74  62  66 S15       30.13F
PHILADELPHIA   MOSUNNY   78  60  53 SE12      30.13F
WILDWOOD NJ*   SUNNY     75  61  60 E13       30.14F
ATLANTIC CITY  MOSUNNY   74  63  68 SE8       30.15F
HENDERSON NC   SUNNY     77  56  49 NE7       30.07F
GREENSBORO     MOSUNNY   80  57  45 NE8       30.07F
ROCKY MOUNT    MOSUNNY   79  61  53 NE10      30.04F
FAYETTEVILLE   CLOUDY    78  60  53 NE10      30.01F
CHARLOTTE      MOSUNNY   82  57  42 N12       30.06F
$$

VAZ100-202200-
MARINE

STATION/POSITION TIME  TEMP    WIND        PRES    WAVE   SWELL
                       AIR SEA DIR/SP/G            HT/PER HT/PER
                 (UTC) (F)     (DEG/KT/KT) (MB)    (FT/S) (FT/S)
44066 TX TWR #4  2100   72 72  140/ 16/ 17 1021.1F   4/ 9   3/ 9
CAPE MAY NJ      2100   73 75  130/ 10/ 13 1019.7F
LEWES DE         2100   73 72  130/ 10/ 13 1019.8R
15NM E FENWICK I 2100   70 72              1019.4F   6/ 6
OCEAN-CITY-INLET 2100   72 71  130/ 10/ 14 1020.0R
WACHAPREAGUE VA  2100   72 74   70/ 14/ 18 1019.3F
THOMAS POINT MD  2100   74 74  200/  4/  5 1020.3F
GOOSES REEF MD   2100   76     200/  4/  6 1020.1R
COVE POINT MD    2100   73     190/  8/  9 1019.5S
SOLOMONS ISLAND  2100      78                N/A
BISHOPS HEAD MD  2100   76 74   90/ 11/ 14 1019.2F
PINEY POINT MD   2100          170/ 10/ 11   N/A
POTOMAC MD       2100   74     110/  6/ 14 1018.9F
CAMBRIDGE MD     2100   77 74   90/  8/  9 1019.2F
LEWISETTA VA     2100   74 74  130/ 10/ 13 1019.0F
RAPPAHANNOCK LGT 2100           70/ 16/ 18 1019.4F
STINGRAY PT      2100   74      90/ 12/ 16   N/A
YORK RVR RNG VA  2100   73      80/ 17/ 20 1018.4F
YORKTOWN VA      2100   73 76   70/ 15/ 17 1018.6F
JAMESTOWN VA     2100   74     100/  6/ 10   N/A
DOMINION TERM VA 2100   73      70/ 14/ 20 1018.9F
KIPTOPEKE VA     2100      79   70/ 12/ 17   N/A
CHES BAY BRIDGE  2100   72 75   40/ 18/ 20 1018.0F
CAPE HENRY VA    2100   72      60/ 18/ 19 1017.4S
CHESAPEAKE LGHT  2000   71      60/ 21/ 22 1019.1F
WILLOUBY STN VA  2100   72      50/ 13/ 15 1017.4F
S CRANEY ISL VA  2100           30/ 14/ 18 1018.1F
CAPE HENRY BUOY  2100      75                N/A     6/ 8   2/11
1ST LANDING BUOY 2100   72      40/ 16/ 17 1018.3F
CAPE CHARLES BUO 2100      75                N/A     6/ 9   3/ 9
OFFSHORE WE BUOY 2100      74                N/A     8/ 9   5/ 9
64NM E OF VA BCH 2100   74 77   30/ 16/ 19 1017.0F   9/ 9   7/ 9
DUCK PIER NC     2100   72 74   40/ 24/ 26 1016.4F
44100 DUCK FRF   2100      74                N/A     8/10   2/11
44056 DUCK FRF   2100                        N/A     6/ 9   2/11
OREGON INLET NC  2100   74 73   20/ 12/ 16 1016.5F
HATTERAS NC      2100   74 73   40/  7/ 12 1016.4S
DIAMOND SHLS NC  2100   76     170/  8/ 14 1015.5F   7/10   7/10
CAPE LOOKOUT NC  2000   74      20/ 14/ 20 1015.4F
$$


USA.gov is the U.S. government's official web portal to all federal, state and local government web resources and services.